GEFSNE_prec_meanprec_342.txt.gz
QPF
0.05 0.06 0.06 0.07 0.06 0.06 0.06 0.07 0.09 0.08 0.05 0.02 0.01 0.01 0.02 0.04 0.06 0.04 0.03 0.03 0.02 0.01 0.01 0.01 0.02 0.02 0.02 0.03 0.04 0.06 0.07 0.07 0.06 0.08 0.09 0.10 0.11 0.10
0.05 0.05 0.05 0.05 0.06 0.06 0.06 0.07 0.09 0.09 0.05 0.02 0.02 0.01 0.02 0.03 0.05 0.04 0.03 0.03 0.02 0.01 0.01 0.01 0.01 0.02 0.01 0.02 0.03 0.05 0.06 0.05 0.04 0.04 0.05 0.07 0.11 0.12
0.06 0.05 0.04 0.05 0.05 0.07 0.07 0.07 0.07 0.06 0.06 0.03 0.03 0.02 0.04 0.05 0.06 0.06 0.05 0.04 0.02 0.01 0.01 0.01 0.01 0.01 0.01 0.02 0.03 0.04 0.04 0.04 0.03 0.03 0.02 0.03 0.04 0.06
0.06 0.06 0.04 0.05 0.07 0.08 0.09 0.09 0.08 0.08 0.07 0.04 0.03 0.02 0.03 0.04 0.08 0.09 0.06 0.05 0.04 0.03 0.03 0.03 0.03 0.02 0.02 0.02 0.03 0.03 0.04 0.03 0.03 0.02 0.02 0.02 0.03 0.03
0.07 0.07 0.06 0.07 0.07 0.09 0.10 0.10 0.09 0.08 0.08 0.06 0.04 0.04 0.03 0.02 0.04 0.05 0.06 0.06 0.04 0.03 0.04 0.04 0.04 0.03 0.03 0.03 0.03 0.03 0.03 0.03 0.02 0.02 0.02 0.02 0.02 0.02
0.10 0.09 0.07 0.07 0.07 0.08 0.07 0.07 0.07 0.08 0.08 0.08 0.06 0.04 0.04 0.03 0.04 0.04 0.05 0.06 0.05 0.04 0.05 0.05 0.05 0.04 0.04 0.04 0.04 0.03 0.03 0.02 0.02 0.02 0.02 0.01 0.01 0.02
0.07 0.07 0.07 0.06 0.05 0.05 0.04 0.04 0.05 0.05 0.05 0.05 0.04 0.04 0.04 0.04 0.04 0.03 0.05 0.05 0.05 0.04 0.06 0.05 0.05 0.05 0.06 0.05 0.04 0.03 0.02 0.02 0.01 0.01 0.01 0.02 0.02 0.01
0.03 0.04 0.03 0.05 0.05 0.04 0.03 0.03 0.03 0.03 0.03 0.03 0.03 0.02 0.03 0.04 0.04 0.03 0.04 0.04 0.04 0.04 0.06 0.05 0.05 0.06 0.09 0.06 0.04 0.02 0.02 0.02 0.01 0.01 0.02 0.02 0.03 0.02
0.03 0.03 0.03 0.03 0.04 0.04 0.04 0.04 0.03 0.03 0.03 0.04 0.03 0.02 0.03 0.03 0.05 0.04 0.05 0.05 0.05 0.05 0.06 0.06 0.05 0.05 0.06 0.05 0.03 0.02 0.02 0.02 0.01 0.01 0.03 0.03 0.02 0.03
0.03 0.04 0.04 0.05 0.05 0.05 0.05 0.04 0.04 0.03 0.04 0.04 0.04 0.03 0.04 0.05 0.05 0.05 0.05 0.05 0.05 0.06 0.07 0.06 0.05 0.05 0.05 0.04 0.03 0.03 0.02 0.02 0.01 0.01 0.02 0.02 0.01 0.01
0.02 0.02 0.02 0.03 0.02 0.02 0.02 0.02 0.02 0.02 0.01 0.03 0.03 0.03 0.03 0.03 0.05 0.05 0.04 0.04 0.04 0.07 0.08 0.07 0.07 0.06 0.06 0.06 0.03 0.03 0.04 0.02 0.01 0.01 0.01 0.01 0.02 0.03
0.02 0.02 0.01 0.01 0.01 0.01 0.01 0.01 0.01 0.01 0.01 0.01 0.02 0.02 0.02 0.03 0.05 0.06 0.06 0.06 0.07 0.06 0.04 0.05 0.04 0.04 0.05 0.06 0.04 0.03 0.02 0.02 0.01 0.01 0.02 0.02 0.03 0.02
0.01 0.01 0.01 0.00 0.00 0.00 0.01 0.01 0.01 0.01 0.01 0.01 0.01 0.01 0.02 0.03 0.04 0.04 0.05 0.05 0.05 0.04 0.04 0.04 0.03 0.03 0.04 0.04 0.04 0.03 0.02 0.02 0.02 0.02 0.02 0.02 0.03 0.02
0.01 0.01 0.01 0.00 0.00 0.00 0.00 0.01 0.01 0.01 0.01 0.01 0.01 0.02 0.03 0.03 0.04 0.03 0.03 0.04 0.04 0.04 0.05 0.05 0.05 0.05 0.04 0.04 0.04 0.03 0.02 0.02 0.03 0.02 0.02 0.04 0.04 0.04
0.02 0.01 0.01 0.00 0.00 0.01 0.01 0.01 0.01 0.02 0.01 0.02 0.02 0.03 0.03 0.04 0.04 0.04 0.04 0.04 0.04 0.04 0.04 0.05 0.05 0.05 0.05 0.05 0.04 0.04 0.03 0.03 0.04 0.04 0.05 0.05 0.04 0.04
0.03 0.02 0.01 0.01 0.01 0.01 0.02 0.02 0.03 0.03 0.03 0.02 0.03 0.03 0.04 0.04 0.04 0.03 0.03 0.04 0.04 0.04 0.04 0.04 0.05 0.05 0.05 0.05 0.05 0.04 0.03 0.04 0.04 0.05 0.06 0.06 0.05 0.05
0.03 0.02 0.02 0.02 0.03 0.02 0.03 0.03 0.03 0.04 0.05 0.05 0.04 0.05 0.05 0.05 0.04 0.03 0.03 0.02 0.02 0.03 0.04 0.04 0.05 0.05 0.05 0.06 0.06 0.04 0.03 0.04 0.04 0.05 0.06 0.05 0.05 0.04
0.02 0.02 0.02 0.03 0.04 0.04 0.03 0.03 0.03 0.03 0.03 0.04 0.03 0.04 0.04 0.04 0.03 0.03 0.03 0.02 0.02 0.02 0.03 0.03 0.03 0.04 0.05 0.05 0.05 0.04 0.04 0.04 0.06 0.07 0.07 0.06 0.06 0.05
0.03 0.03 0.04 0.04 0.04 0.05 0.05 0.05 0.05 0.05 0.06 0.06 0.06 0.05 0.05 0.04 0.04 0.04 0.04 0.04 0.05 0.04 0.04 0.03 0.03 0.03 0.04 0.04 0.03 0.04 0.05 0.07 0.08 0.07 0.06 0.06 0.06 0.05
0.02 0.02 0.03 0.03 0.03 0.03 0.03 0.03 0.04 0.05 0.05 0.06 0.06 0.07 0.06 0.05 0.05 0.04 0.04 0.05 0.06 0.06 0.07 0.06 0.05 0.05 0.04 0.05 0.05 0.05 0.06 0.07 0.06 0.05 0.05 0.05 0.05 0.04
0.02 0.03 0.04 0.03 0.02 0.02 0.02 0.02 0.02 0.03 0.04 0.05 0.05 0.05 0.05 0.06 0.06 0.06 0.05 0.05 0.06 0.07 0.07 0.08 0.08 0.07 0.07 0.08 0.08 0.06 0.05 0.04 0.04 0.04 0.05 0.06 0.05 0.04
0.04 0.03 0.02 0.01 0.01 0.02 0.02 0.02 0.02 0.02 0.03 0.03 0.04 0.04 0.03 0.03 0.04 0.04 0.04 0.05 0.07 0.07 0.08 0.08 0.07 0.07 0.08 0.08 0.09 0.08 0.07 0.07 0.05 0.04 0.04 0.05 0.04 0.04
0.02 0.02 0.02 0.02 0.01 0.01 0.02 0.02 0.02 0.03 0.03 0.03 0.03 0.04 0.04 0.03 0.02 0.02 0.03 0.04 0.05 0.06 0.06 0.05 0.05 0.05 0.07 0.08 0.09 0.08 0.07 0.07 0.07 0.07 0.06 0.04 0.04 0.05

GEFSNE_prec_meanprec_348.txt.gz
QPF
0.09 0.08 0.06 0.05 0.06 0.06 0.06 0.05 0.04 0.04 0.04 0.03 0.02 0.03 0.05 0.04 0.03 0.04 0.05 0.05 0.04 0.04 0.04 0.04 0.04 0.03 0.03 0.04 0.04 0.04 0.05 0.06 0.06 0.05 0.04 0.06 0.08 0.11
0.08 0.08 0.07 0.05 0.04 0.05 0.05 0.06 0.05 0.04 0.03 0.03 0.02 0.03 0.03 0.04 0.04 0.04 0.04 0.04 0.04 0.03 0.02 0.02 0.02 0.02 0.02 0.02 0.03 0.03 0.05 0.06 0.05 0.04 0.04 0.05 0.06 0.09
0.04 0.04 0.04 0.04 0.04 0.04 0.05 0.06 0.06 0.04 0.02 0.02 0.02 0.02 0.03 0.04 0.05 0.08 0.10 0.08 0.04 0.03 0.03 0.02 0.01 0.01 0.01 0.01 0.02 0.02 0.05 0.04 0.03 0.04 0.05 0.06 0.04 0.06
0.02 0.02 0.03 0.04 0.04 0.05 0.05 0.05 0.05 0.05 0.04 0.03 0.03 0.02 0.04 0.08 0.07 0.11 0.14 0.11 0.07 0.05 0.04 0.02 0.02 0.03 0.02 0.01 0.01 0.02 0.03 0.02 0.03 0.03 0.04 0.06 0.04 0.03
0.02 0.02 0.02 0.03 0.03 0.04 0.04 0.05 0.05 0.06 0.05 0.04 0.03 0.03 0.03 0.03 0.04 0.04 0.07 0.08 0.06 0.05 0.05 0.04 0.04 0.04 0.03 0.02 0.01 0.02 0.02 0.02 0.03 0.03 0.04 0.04 0.03 0.03
0.03 0.03 0.04 0.05 0.05 0.06 0.05 0.05 0.04 0.04 0.04 0.04 0.03 0.03 0.03 0.03 0.04 0.03 0.02 0.02 0.02 0.02 0.03 0.04 0.06 0.07 0.06 0.04 0.03 0.02 0.03 0.03 0.03 0.03 0.03 0.03 0.02 0.02
0.03 0.03 0.03 0.05 0.04 0.04 0.03 0.03 0.03 0.03 0.04 0.04 0.04 0.04 0.03 0.04 0.04 0.04 0.03 0.02 0.02 0.02 0.02 0.02 0.03 0.05 0.06 0.06 0.05 0.04 0.03 0.03 0.02 0.02 0.02 0.02 0.02 0.02
0.06 0.04 0.02 0.03 0.03 0.04 0.04 0.04 0.04 0.04 0.04 0.05 0.06 0.05 0.04 0.04 0.04 0.05 0.05 0.04 0.02 0.02 0.02 0.01 0.02 0.04 0.04 0.04 0.05 0.06 0.04 0.03 0.03 0.02 0.02 0.01 0.02 0.03
0.04 0.02 0.02 0.02 0.03 0.03 0.04 0.05 0.06 0.06 0.06 0.07 0.07 0.07 0.06 0.06 0.06 0.04 0.04 0.04 0.03 0.02 0.02 0.02 0.04 0.06 0.06 0.06 0.05 0.05 0.05 0.04 0.03 0.03 0.03 0.03 0.02 0.03
0.02 0.02 0.03 0.03 0.02 0.02 0.02 0.02 0.04 0.05 0.05 0.05 0.03 0.03 0.04 0.04 0.04 0.03 0.03 0.03 0.03 0.03 0.04 0.05 0.06 0.05 0.06 0.07 0.07 0.06 0.06 0.05 0.03 0.02 0.02 0.02 0.02 0.03
0.02 0.03 0.03 0.04 0.03 0.01 0.01 0.01 0.01 0.01 0.02 0.01 0.02 0.02 0.02 0.02 0.03 0.03 0.03 0.03 0.03 0.04 0.04 0.04 0.02 0.03 0.05 0.08 0.09 0.07 0.07 0.05 0.04 0.02 0.02 0.02 0.02 0.02
0.03 0.03 0.04 0.04 0.02 0.01 0.00 0.01 0.01 0.01 0.01 0.01 0.01 0.01 0.01 0.01 0.02 0.02 0.03 0.03 0.03 0.04 0.03 0.03 0.02 0.02 0.06 0.09 0.10 0.09 0.07 0.04 0.03 0.02 0.01 0.01 0.01 0.00
0.03 0.02 0.02 0.02 0.02 0.01 0.01 0.00 0.01 0.02 0.02 0.02 0.01 0.01 0.01 0.01 0.01 0.01 0.02 0.02 0.02 0.02 0.02 0.03 0.04 0.03 0.06 0.09 0.10 0.08 0.07 0.05 0.03 0.02 0.01 0.01 0.01 0.01
0.03 0.03 0.03 0.03 0.02 0.01 0.01 0.00 0.01 0.02 0.02 0.02 0.02 0.01 0.01 0.01 0.01 0.01 0.02 0.03 0.03 0.03 0.03 0.04 0.06 0.05 0.06 0.06 0.07 0.07 0.07 0.05 0.03 0.01 0.01 0.01 0.01 0.01
0.04 0.03 0.03 0.03 0.03 0.02 0.01 0.01 0.01 0.02 0.02 0.02 0.02 0.02 0.02 0.01 0.01 0.02 0.02 0.03 0.03 0.05 0.06 0.08 0.11 0.10 0.08 0.05 0.04 0.05 0.06 0.05 0.03 0.02 0.02 0.02 0.01 0.02
0.04 0.04 0.03 0.03 0.03 0.02 0.02 0.01 0.01 0.01 0.02 0.03 0.04 0.04 0.04 0.02 0.02 0.02 0.02 0.03 0.04 0.05 0.04 0.05 0.06 0.05 0.05 0.03 0.02 0.04 0.05 0.04 0.03 0.02 0.02 0.02 0.02 0.03
0.05 0.04 0.03 0.03 0.02 0.02 0.02 0.02 0.02 0.02 0.02 0.03 0.03 0.04 0.04 0.05 0.05 0.05 0.06 0.07 0.08 0.09 0.09 0.09 0.08 0.05 0.04 0.04 0.03 0.04 0.04 0.03 0.03 0.02 0.02 0.02 0.02 0.03
0.06 0.06 0.04 0.02 0.02 0.02 0.02 0.02 0.02 0.02 0.03 0.03 0.03 0.04 0.04 0.04 0.04 0.04 0.05 0.05 0.06 0.06 0.05 0.05 0.06 0.06 0.06 0.05 0.04 0.04 0.05 0.04 0.03 0.03 0.03 0.03 0.03 0.03
0.05 0.05 0.06 0.05 0.03 0.02 0.01 0.01 0.01 0.02 0.03 0.04 0.04 0.04 0.04 0.03 0.04 0.04 0.05 0.05 0.06 0.06 0.06 0.05 0.05 0.04 0.04 0.05 0.05 0.06 0.06 0.04 0.04 0.03 0.04 0.04 0.03 0.03
0.01 0.01 0.03 0.04 0.04 0.04 0.03 0.02 0.02 0.02 0.02 0.04 0.04 0.04 0.05 0.06 0.06 0.06 0.06 0.06 0.06 0.07 0.08 0.08 0.06 0.04 0.04 0.04 0.05 0.05 0.05 0.04 0.04 0.04 0.04 0.04 0.04 0.04
0.02 0.01 0.01 0.02 0.03 0.03 0.04 0.03 0.03 0.02 0.02 0.02 0.02 0.02 0.03 0.03 0.04 0.05 0.06 0.06 0.04 0.04 0.04 0.04 0.05 0.05 0.04 0.04 0.04 0.05 0.05 0.03 0.04 0.03 0.03 0.03 0.04 0.04
0.04 0.04 0.03 0.03 0.03 0.03 0.03 0.03 0.03 0.03 0.02 0.02 0.02 0.02 0.02 0.02 0.03 0.03 0.04 0.03 0.03 0.03 0.04 0.03 0.04 0.04 0.04 0.04 0.04 0.05 0.06 0.04 0.03 0.02 0.02 0.03 0.03 0.03
0.02 0.02 0.02 0.02 0.02 0.03 0.02 0.02 0.03 0.03 0.03 0.02 0.02 0.02 0.03 0.04 0.04 0.04 0.04 0.04 0.04 0.04 0.04 0.03 0.03 0.03 0.03 0.04 0.04 0.04 0.04 0.04 0.04 0.05 0.04 0.04 0.04 0.04

GEFSNE_prec_meanprec_354.txt.gz
QPF
0.03 0.04 0.05 0.06 0.07 0.07 0.05 0.05 0.05 0.05 0.03 0.02 0.02 0.02 0.01 0.01 0.01 0.01 0.01 0.01 0.01 0.01 0.01 0.01 0.01 0.02 0.02 0.02 0.03 0.04 0.07 0.06 0.07 0.06 0.06 0.06 0.07 0.08
0.02 0.02 0.03 0.05 0.05 0.05 0.05 0.05 0.05 0.05 0.03 0.03 0.03 0.02 0.02 0.01 0.01 0.01 0.00 0.01 0.01 0.01 0.02 0.02 0.02 0.02 0.02 0.02 0.03 0.03 0.05 0.05 0.06 0.07 0.06 0.05 0.05 0.05
0.02 0.02 0.02 0.02 0.02 0.02 0.03 0.03 0.04 0.03 0.02 0.02 0.02 0.03 0.02 0.02 0.02 0.01 0.01 0.00 0.01 0.01 0.02 0.02 0.02 0.02 0.02 0.02 0.02 0.02 0.03 0.03 0.03 0.04 0.05 0.05 0.06 0.05
0.02 0.02 0.01 0.02 0.01 0.02 0.03 0.02 0.02 0.03 0.03 0.03 0.03 0.04 0.03 0.03 0.03 0.03 0.02 0.02 0.01 0.01 0.01 0.01 0.01 0.02 0.02 0.02 0.02 0.02 0.02 0.02 0.02 0.02 0.03 0.04 0.05 0.05
0.03 0.02 0.02 0.02 0.02 0.02 0.03 0.03 0.03 0.03 0.04 0.04 0.04 0.04 0.04 0.04 0.04 0.03 0.03 0.03 0.03 0.02 0.02 0.01 0.01 0.01 0.02 0.02 0.02 0.01 0.02 0.01 0.02 0.02 0.03 0.04 0.04 0.04
0.02 0.03 0.03 0.03 0.02 0.02 0.02 0.03 0.04 0.05 0.05 0.05 0.04 0.03 0.03 0.04 0.04 0.03 0.03 0.03 0.03 0.04 0.03 0.02 0.02 0.02 0.02 0.01 0.01 0.01 0.02 0.02 0.02 0.02 0.03 0.04 0.04 0.04
0.03 0.04 0.04 0.04 0.03 0.02 0.03 0.04 0.05 0.05 0.04 0.03 0.03 0.03 0.04 0.04 0.03 0.03 0.03 0.03 0.04 0.04 0.04 0.04 0.03 0.03 0.03 0.04 0.03 0.03 0.02 0.02 0.02 0.03 0.03 0.03 0.03 0.03
0.02 0.02 0.02 0.02 0.02 0.02 0.03 0.04 0.04 0.03 0.03 0.03 0.03 0.03 0.04 0.04 0.04 0.03 0.03 0.03 0.04 0.03 0.02 0.03 0.03 0.03 0.03 0.04 0.07 0.08 0.06 0.05 0.04 0.04 0.04 0.03 0.04 0.04
0.04 0.03 0.03 0.02 0.02 0.03 0.04 0.04 0.03 0.04 0.04 0.03 0.02 0.03 0.04 0.04 0.04 0.04 0.03 0.03 0.03 0.04 0.03 0.03 0.03 0.03 0.05 0.05 0.05 0.06 0.09 0.09 0.07 0.06 0.05 0.05 0.07 0.04
0.05 0.05 0.03 0.03 0.05 0.06 0.05 0.04 0.03 0.03 0.02 0.02 0.02 0.03 0.03 0.04 0.03 0.03 0.03 0.03 0.03 0.04 0.05 0.04 0.04 0.04 0.04 0.05 0.05 0.04 0.05 0.06 0.06 0.05 0.04 0.05 0.06 0.03
0.11 0.10 0.08 0.07 0.07 0.06 0.04 0.03 0.03 0.02 0.01 0.01 0.03 0.03 0.03 0.03 0.03 0.04 0.04 0.04 0.03 0.03 0.04 0.05 0.05 0.03 0.03 0.03 0.04 0.04 0.04 0.04 0.05 0.06 0.05 0.04 0.03 0.01
0.10 0.08 0.06 0.04 0.05 0.05 0.03 0.03 0.02 0.02 0.01 0.02 0.02 0.02 0.02 0.02 0.02 0.03 0.04 0.04 0.04 0.04 0.03 0.03 0.03 0.03 0.02 0.02 0.02 0.03 0.04 0.05 0.05 0.06 0.06 0.04 0.02 0.01
0.08 0.07 0.05 0.04 0.04 0.04 0.03 0.03 0.02 0.02 0.02 0.02 0.02 0.02 0.01 0.01 0.01 0.02 0.04 0.04 0.04 0.03 0.03 0.02 0.02 0.02 0.02 0.03 0.04 0.04 0.05 0.06 0.07 0.07 0.06 0.04 0.03 0.02
0.03 0.04 0.03 0.02 0.02 0.02 0.03 0.04 0.04 0.03 0.02 0.02 0.02 0.02 0.01 0.01 0.01 0.02 0.02 0.02 0.03 0.03 0.02 0.02 0.02 0.01 0.01 0.02 0.05 0.07 0.07 0.07 0.08 0.07 0.06 0.04 0.03 0.03
0.02 0.03 0.03 0.03 0.02 0.02 0.03 0.04 0.04 0.03 0.03 0.02 0.02 0.02 0.03 0.02 0.01 0.01 0.01 0.01 0.02 0.03 0.02 0.02 0.03 0.02 0.02 0.04 0.05 0.07 0.08 0.09 0.08 0.06 0.05 0.03 0.02 0.02
0.02 0.01 0.03 0.03 0.03 0.03 0.03 0.03 0.03 0.04 0.04 0.03 0.03 0.03 0.02 0.03 0.02 0.02 0.02 0.02 0.02 0.02 0.03 0.02 0.04 0.03 0.04 0.05 0.05 0.05 0.05 0.06 0.06 0.05 0.04 0.03 0.01 0.01
0.02 0.02 0.02 0.03 0.03 0.03 0.02 0.02 0.03 0.04 0.05 0.04 0.03 0.03 0.02 0.02 0.03 0.04 0.03 0.03 0.03 0.03 0.04 0.04 0.06 0.05 0.05 0.05 0.04 0.04 0.03 0.03 0.03 0.04 0.04 0.03 0.02 0.01
0.02 0.03 0.03 0.03 0.03 0.03 0.03 0.03 0.03 0.03 0.04 0.06 0.05 0.04 0.02 0.02 0.02 0.03 0.04 0.05 0.05 0.05 0.04 0.04 0.06 0.05 0.06 0.06 0.05 0.03 0.03 0.03 0.03 0.04 0.05 0.04 0.02 0.01
0.01 0.01 0.01 0.01 0.01 0.01 0.02 0.02 0.03 0.02 0.02 0.03 0.05 0.07 0.06 0.03 0.02 0.02 0.03 0.04 0.06 0.07 0.06 0.05 0.05 0.05 0.05 0.05 0.07 0.05 0.04 0.04 0.05 0.05 0.06 0.05 0.03 0.02
0.01 0.01 0.00 0.00 0.00 0.00 0.01 0.01 0.02 0.02 0.02 0.02 0.02 0.02 0.03 0.02 0.01 0.02 0.02 0.03 0.04 0.05 0.04 0.03 0.04 0.05 0.04 0.04 0.06 0.06 0.06 0.05 0.04 0.05 0.06 0.05 0.03 0.02
0.02 0.02 0.02 0.01 0.01 0.01 0.00 0.01 0.01 0.02 0.02 0.02 0.02 0.01 0.01 0.01 0.01 0.01 0.03 0.05 0.06 0.07 0.07 0.06 0.06 0.06 0.05 0.05 0.06 0.08 0.08 0.06 0.04 0.05 0.05 0.04 0.04 0.04
0.02 0.02 0.01 0.01 0.01 0.01 0.01 0.01 0.02 0.02 0.03 0.03 0.02 0.02 0.02 0.01 0.01 0.01 0.02 0.03 0.03 0.05 0.06 0.06 0.06 0.06 0.05 0.05 0.06 0.06 0.07 0.07 0.06 0.06 0.05 0.04 0.04 0.04
0.02 0.02 0.01 0.02 0.01 0.01 0.01 0.02 0.02 0.03 0.03 0.02 0.02 0.02 0.02 0.02 0.02 0.02 0.02 0.03 0.04 0.05 0.05 0.05 0.04 0.04 0.04 0.04 0.04 0.05 0.06 0.07 0.07 0.06 0.05 0.04 0.03 0.02

GEFSNE_prec_meanprec_360.txt.gz
QPF
0.02 0.02 0.03 0.03 0.04 0.04 0.05 0.04 0.04 0.03 0.03 0.04 0.05 0.05 0.03 0.02 0.02 0.02 0.03 0.02 0.02 0.02 0.02 0.01 0.01 0.01 0.01 0.02 0.01 0.01 0.05 0.12 0.13 0.10 0.06 0.06 0.07 0.09
0.02 0.02 0.03 0.03 0.03 0.04 0.04 0.05 0.05 0.05 0.04 0.04 0.04 0.04 0.03 0.03 0.03 0.02 0.02 0.02 0.02 0.02 0.01 0.01 0.01 0.01 0.01 0.01 0.01 0.01 0.02 0.06 0.09 0.10 0.07 0.05 0.06 0.07
0.02 0.02 0.03 0.03 0.03 0.03 0.04 0.04 0.04 0.05 0.05 0.04 0.04 0.04 0.04 0.03 0.02 0.02 0.02 0.02 0.02 0.02 0.02 0.01 0.01 0.01 0.01 0.01 0.01 0.01 0.01 0.02 0.04 0.07 0.08 0.07 0.06 0.06
0.03 0.03 0.03 0.02 0.03 0.03 0.03 0.03 0.03 0.03 0.04 0.03 0.04 0.05 0.04 0.03 0.02 0.01 0.01 0.01 0.01 0.02 0.02 0.01 0.01 0.01 0.01 0.01 0.01 0.01 0.01 0.01 0.01 0.02 0.04 0.06 0.06 0.05
0.02 0.02 0.02 0.02 0.03 0.03 0.03 0.03 0.02 0.03 0.03 0.03 0.03 0.03 0.03 0.03 0.03 0.03 0.03 0.02 0.01 0.01 0.01 0.01 0.01 0.01 0.01 0.01 0.01 0.01 0.01 0.01 0.01 0.01 0.02 0.04 0.04 0.04
0.02 0.02 0.02 0.02 0.03 0.03 0.04 0.04 0.03 0.03 0.03 0.03 0.03 0.03 0.02 0.02 0.02 0.03 0.03 0.02 0.02 0.02 0.03 0.03 0.03 0.02 0.02 0.01 0.01 0.02 0.02 0.02 0.02 0.02 0.02 0.02 0.02 0.02
0.03 0.03 0.03 0.03 0.02 0.02 0.02 0.03 0.03 0.03 0.03 0.03 0.04 0.03 0.03 0.02 0.02 0.02 0.02 0.03 0.03 0.03 0.03 0.04 0.04 0.05 0.04 0.03 0.02 0.02 0.02 0.02 0.03 0.03 0.03 0.02 0.02 0.02
0.06 0.05 0.04 0.04 0.03 0.02 0.02 0.02 0.03 0.03 0.03 0.04 0.05 0.05 0.05 0.05 0.05 0.04 0.03 0.03 0.03 0.03 0.04 0.05 0.04 0.05 0.05 0.05 0.04 0.04 0.04 0.03 0.03 0.03 0.03 0.02 0.02 0.02
0.08 0.08 0.06 0.03 0.02 0.02 0.03 0.03 0.03 0.04 0.05 0.06 0.07 0.08 0.08 0.06 0.05 0.04 0.03 0.03 0.03 0.03 0.04 0.04 0.04 0.05 0.05 0.05 0.05 0.06 0.06 0.06 0.06 0.05 0.04 0.04 0.04 0.03
0.05 0.06 0.06 0.04 0.03 0.04 0.05 0.05 0.05 0.05 0.05 0.04 0.04 0.04 0.04 0.04 0.03 0.03 0.03 0.04 0.04 0.04 0.04 0.05 0.05 0.05 0.05 0.05 0.06 0.06 0.07 0.09 0.10 0.09 0.08 0.09 0.08 0.05
0.03 0.04 0.05 0.05 0.04 0.04 0.04 0.04 0.04 0.03 0.03 0.03 0.03 0.03 0.02 0.03 0.03 0.03 0.03 0.04 0.04 0.05 0.05 0.05 0.06 0.06 0.06 0.06 0.06 0.06 0.05 0.06 0.10 0.12 0.11 0.12 0.10 0.05
0.04 0.04 0.05 0.04 0.02 0.01 0.02 0.02 0.03 0.03 0.02 0.02 0.02 0.02 0.02 0.03 0.03 0.03 0.03 0.03 0.03 0.04 0.05 0.05 0.07 0.08 0.07 0.06 0.05 0.05 0.05 0.06 0.07 0.07 0.08 0.08 0.07 0.04
0.03 0.03 0.03 0.02 0.02 0.01 0.01 0.02 0.02 0.02 0.03 0.03 0.02 0.02 0.02 0.02 0.03 0.03 0.02 0.02 0.02 0.03 0.03 0.05 0.06 0.06 0.07 0.05 0.04 0.04 0.04 0.06 0.06 0.06 0.05 0.04 0.04 0.03
0.03 0.03 0.03 0.02 0.02 0.02 0.03 0.02 0.02 0.02 0.02 0.02 0.02 0.03 0.03 0.03 0.03 0.03 0.02 0.02 0.02 0.03 0.03 0.03 0.04 0.06 0.06 0.05 0.04 0.04 0.04 0.05 0.05 0.05 0.05 0.03 0.02 0.01
0.02 0.02 0.03 0.03 0.03 0.03 0.03 0.04 0.03 0.02 0.02 0.02 0.02 0.03 0.03 0.05 0.05 0.04 0.03 0.03 0.03 0.03 0.03 0.03 0.03 0.05 0.06 0.05 0.05 0.04 0.04 0.04 0.05 0.03 0.03 0.03 0.01 0.01
0.02 0.01 0.03 0.03 0.02 0.03 0.03 0.03 0.03 0.03 0.02 0.02 0.03 0.03 0.03 0.04 0.05 0.05 0.04 0.03 0.04 0.04 0.03 0.02 0.03 0.05 0.06 0.05 0.04 0.03 0.03 0.03 0.03 0.03 0.03 0.02 0.02 0.01
0.02 0.02 0.02 0.02 0.01 0.01 0.02 0.03 0.03 0.03 0.02 0.02 0.03 0.03 0.04 0.04 0.04 0.05 0.06 0.04 0.04 0.04 0.05 0.05 0.04 0.04 0.05 0.05 0.04 0.03 0.02 0.02 0.02 0.03 0.03 0.03 0.02 0.02
0.04 0.03 0.02 0.02 0.02 0.01 0.01 0.02 0.02 0.02 0.02 0.03 0.04 0.06 0.07 0.06 0.05 0.05 0.05 0.05 0.05 0.06 0.08 0.06 0.05 0.04 0.04 0.05 0.04 0.03 0.03 0.02 0.02 0.03 0.03 0.02 0.03 0.02
0.03 0.03 0.02 0.02 0.02 0.02 0.02 0.02 0.02 0.03 0.04 0.04 0.05 0.09 0.11 0.10 0.07 0.07 0.06 0.05 0.04 0.06 0.09 0.07 0.05 0.05 0.05 0.04 0.04 0.04 0.03 0.03 0.02 0.03 0.03 0.03 0.03 0.02
0.03 0.03 0.02 0.02 0.01 0.01 0.01 0.01 0.02 0.03 0.03 0.03 0.04 0.05 0.08 0.07 0.06 0.04 0.05 0.05 0.04 0.04 0.05 0.04 0.04 0.04 0.04 0.04 0.04 0.04 0.03 0.02 0.03 0.03 0.04 0.04 0.03 0.03
0.03 0.03 0.03 0.02 0.02 0.02 0.02 0.02 0.02 0.02 0.02 0.02 0.02 0.01 0.01 0.01 0.02 0.02 0.02 0.02 0.03 0.03 0.03 0.04 0.04 0.04 0.04 0.04 0.04 0.05 0.05 0.05 0.03 0.03 0.04 0.04 0.03 0.03
0.03 0.03 0.03 0.03 0.02 0.02 0.02 0.03 0.02 0.01 0.01 0.02 0.02 0.01 0.01 0.01 0.01 0.01 0.01 0.01 0.01 0.02 0.02 0.04 0.04 0.04 0.04 0.05 0.05 0.06 0.06 0.07 0.06 0.06 0.06 0.06 0.04 0.04
0.03 0.03 0.03 0.03 0.02 0.02 0.02 0.02 0.02 0.02 0.02 0.02 0.02 0.02 0.02 0.02 0.01 0.01 0.01 0.01 0.01 0.01 0.02 0.03 0.03 0.04 0.06 0.06 0.05 0.05 0.05 0.05 0.06 0.07 0.06 0.05 0.05 0.04

GEFSNE_prec_meanprec_366.txt.gz
QPF
0.04 0.04 0.04 0.03 0.03 0.03 0.04 0.06 0.08 0.06 0.05 0.06 0.06 0.06 0.05 0.04 0.04 0.04 0.06 0.04 0.02 0.02 0.03 0.02 0.03 0.03 0.03 0.03 0.02 0.02 0.02 0.04 0.06 0.09 0.08 0.05 0.05 0.06
0.05 0.05 0.04 0.02 0.03 0.03 0.03 0.03 0.05 0.06 0.05 0.05 0.05 0.05 0.06 0.05 0.07 0.06 0.07 0.05 0.02 0.02 0.02 0.02 0.02 0.03 0.03 0.02 0.02 0.03 0.03 0.04 0.07 0.13 0.14 0.08 0.04 0.04
0.06 0.06 0.04 0.04 0.04 0.03 0.03 0.03 0.05 0.05 0.05 0.05 0.05 0.04 0.04 0.07 0.09 0.08 0.08 0.06 0.03 0.02 0.02 0.02 0.02 0.02 0.01 0.01 0.01 0.02 0.02 0.04 0.06 0.08 0.10 0.09 0.06 0.05
0.05 0.06 0.05 0.06 0.06 0.05 0.05 0.05 0.05 0.05 0.06 0.05 0.05 0.04 0.04 0.05 0.06 0.05 0.05 0.05 0.04 0.02 0.01 0.01 0.01 0.01 0.01 0.01 0.01 0.01 0.02 0.03 0.04 0.04 0.05 0.06 0.06 0.07
0.05 0.06 0.06 0.06 0.05 0.05 0.06 0.05 0.06 0.06 0.06 0.05 0.04 0.04 0.03 0.04 0.06 0.06 0.05 0.06 0.04 0.02 0.02 0.01 0.01 0.01 0.00 0.00 0.00 0.00 0.01 0.02 0.02 0.03 0.03 0.04 0.05 0.06
0.04 0.05 0.05 0.05 0.04 0.05 0.05 0.06 0.06 0.06 0.05 0.05 0.04 0.03 0.02 0.03 0.04 0.04 0.04 0.05 0.06 0.04 0.03 0.02 0.02 0.02 0.01 0.00 0.00 0.00 0.00 0.01 0.01 0.02 0.02 0.03 0.04 0.04
0.05 0.06 0.06 0.06 0.06 0.06 0.06 0.06 0.06 0.06 0.05 0.05 0.04 0.04 0.04 0.04 0.03 0.04 0.05 0.06 0.07 0.06 0.06 0.04 0.03 0.04 0.03 0.03 0.02 0.01 0.01 0.01 0.02 0.03 0.03 0.04 0.05 0.05
0.08 0.09 0.09 0.08 0.08 0.09 0.08 0.08 0.07 0.05 0.05 0.05 0.05 0.05 0.05 0.06 0.06 0.06 0.05 0.06 0.05 0.04 0.04 0.04 0.03 0.03 0.04 0.03 0.03 0.02 0.03 0.03 0.04 0.05 0.05 0.04 0.04 0.04
0.08 0.09 0.10 0.09 0.09 0.09 0.10 0.08 0.05 0.05 0.04 0.04 0.04 0.04 0.05 0.06 0.06 0.05 0.06 0.06 0.05 0.04 0.05 0.04 0.03 0.02 0.02 0.02 0.03 0.02 0.03 0.04 0.04 0.05 0.05 0.04 0.03 0.03
0.08 0.09 0.11 0.12 0.10 0.07 0.05 0.05 0.05 0.04 0.04 0.03 0.03 0.03 0.04 0.05 0.06 0.06 0.06 0.05 0.04 0.04 0.05 0.04 0.03 0.03 0.02 0.03 0.03 0.03 0.03 0.03 0.04 0.04 0.05 0.04 0.05 0.06
0.05 0.05 0.06 0.07 0.05 0.04 0.04 0.05 0.04 0.04 0.03 0.02 0.02 0.02 0.02 0.03 0.04 0.05 0.05 0.04 0.04 0.04 0.05 0.04 0.03 0.04 0.04 0.04 0.04 0.04 0.03 0.03 0.03 0.04 0.04 0.05 0.08 0.12
0.04 0.03 0.04 0.04 0.04 0.03 0.02 0.03 0.03 0.03 0.02 0.02 0.02 0.02 0.02 0.02 0.02 0.03 0.05 0.05 0.05 0.05 0.05 0.05 0.05 0.05 0.06 0.06 0.05 0.05 0.04 0.03 0.03 0.04 0.06 0.08 0.10 0.12
0.04 0.03 0.02 0.02 0.03 0.03 0.02 0.02 0.02 0.02 0.03 0.02 0.02 0.02 0.02 0.02 0.02 0.03 0.04 0.06 0.05 0.05 0.06 0.06 0.07 0.07 0.07 0.07 0.06 0.05 0.04 0.03 0.03 0.04 0.05 0.09 0.11 0.09
0.05 0.06 0.06 0.05 0.04 0.04 0.03 0.03 0.03 0.02 0.02 0.02 0.02 0.02 0.02 0.03 0.03 0.04 0.05 0.05 0.06 0.05 0.05 0.05 0.05 0.07 0.07 0.06 0.05 0.05 0.05 0.05 0.04 0.04 0.05 0.06 0.06 0.06
0.05 0.07 0.07 0.07 0.06 0.05 0.04 0.04 0.03 0.03 0.03 0.03 0.02 0.03 0.03 0.03 0.03 0.04 0.06 0.07 0.06 0.04 0.05 0.04 0.04 0.05 0.06 0.05 0.04 0.05 0.05 0.05 0.05 0.05 0.05 0.05 0.04 0.03
0.05 0.05 0.06 0.05 0.05 0.04 0.04 0.03 0.03 0.02 0.02 0.03 0.03 0.03 0.04 0.03 0.03 0.03 0.08 0.09 0.07 0.06 0.05 0.04 0.03 0.04 0.05 0.06 0.05 0.04 0.05 0.05 0.05 0.05 0.05 0.05 0.03 0.02
0.04 0.05 0.05 0.05 0.04 0.04 0.04 0.03 0.03 0.03 0.03 0.03 0.03 0.03 0.03 0.03 0.02 0.03 0.06 0.07 0.07 0.07 0.07 0.07 0.05 0.05 0.05 0.05 0.06 0.05 0.05 0.05 0.05 0.05 0.04 0.04 0.04 0.02
0.05 0.05 0.05 0.05 0.04 0.04 0.04 0.03 0.03 0.03 0.03 0.03 0.03 0.04 0.05 0.05 0.04 0.04 0.05 0.05 0.05 0.05 0.05 0.06 0.07 0.08 0.06 0.05 0.05 0.05 0.05 0.05 0.05 0.06 0.05 0.04 0.04 0.03
0.04 0.04 0.04 0.04 0.04 0.04 0.04 0.04 0.03 0.04 0.04 0.04 0.04 0.04 0.05 0.07 0.07 0.06 0.07 0.07 0.05 0.04 0.04 0.04 0.06 0.07 0.06 0.04 0.03 0.03 0.04 0.05 0.05 0.06 0.07 0.04 0.03 0.04
0.02 0.03 0.04 0.04 0.04 0.04 0.04 0.04 0.05 0.05 0.06 0.06 0.06 0.06 0.05 0.05 0.05 0.05 0.07 0.08 0.07 0.06 0.05 0.04 0.05 0.07 0.05 0.03 0.03 0.03 0.03 0.05 0.05 0.05 0.06 0.05 0.03 0.02
0.04 0.05 0.05 0.06 0.06 0.05 0.04 0.04 0.06 0.09 0.07 0.06 0.06 0.06 0.06 0.05 0.05 0.05 0.06 0.07 0.08 0.07 0.05 0.05 0.05 0.05 0.04 0.04 0.03 0.03 0.02 0.03 0.05 0.05 0.05 0.05 0.03 0.02
0.04 0.06 0.07 0.07 0.08 0.08 0.07 0.06 0.06 0.05 0.05 0.05 0.04 0.04 0.04 0.04 0.03 0.03 0.03 0.05 0.09 0.10 0.07 0.06 0.05 0.03 0.04 0.04 0.03 0.03 0.03 0.03 0.03 0.05 0.05 0.05 0.03 0.02
0.04 0.04 0.05 0.05 0.06 0.07 0.07 0.08 0.08 0.07 0.06 0.05 0.04 0.03 0.03 0.03 0.03 0.02 0.01 0.02 0.04 0.07 0.07 0.06 0.05 0.04 0.04 0.05 0.04 0.04 0.03 0.03 0.03 0.03 0.05 0.06 0.05 0.04

GEFSNE_prec_meanprec_372.txt.gz
QPF
0.07 0.07 0.06 0.04 0.04 0.03 0.05 0.07 0.09 0.05 0.04 0.04 0.04 0.03 0.04 0.05 0.06 0.04 0.03 0.04 0.03 0.02 0.02 0.03 0.02 0.02 0.02 0.02 0.02 0.01 0.02 0.02 0.04 0.09 0.09 0.06 0.04 0.07
0.07 0.06 0.05 0.05 0.04 0.04 0.05 0.06 0.08 0.08 0.06 0.04 0.04 0.03 0.05 0.04 0.04 0.04 0.03 0.04 0.04 0.03 0.02 0.02 0.02 0.01 0.02 0.03 0.02 0.02 0.02 0.02 0.03 0.05 0.12 0.12 0.06 0.04
0.06 0.06 0.04 0.05 0.05 0.04 0.05 0.05 0.07 0.09 0.07 0.05 0.04 0.05 0.05 0.04 0.04 0.04 0.03 0.03 0.03 0.02 0.02 0.03 0.03 0.02 0.02 0.02 0.02 0.02 0.02 0.02 0.04 0.06 0.13 0.19 0.12 0.05
0.03 0.04 0.04 0.03 0.03 0.03 0.04 0.04 0.06 0.08 0.08 0.07 0.06 0.05 0.04 0.04 0.04 0.04 0.03 0.03 0.02 0.02 0.03 0.03 0.03 0.03 0.03 0.02 0.02 0.02 0.02 0.02 0.03 0.06 0.07 0.10 0.11 0.09
0.03 0.03 0.04 0.04 0.03 0.03 0.04 0.06 0.07 0.08 0.08 0.08 0.07 0.07 0.05 0.05 0.05 0.03 0.03 0.02 0.02 0.01 0.02 0.04 0.04 0.03 0.03 0.02 0.02 0.01 0.01 0.01 0.02 0.04 0.06 0.07 0.07 0.07
0.04 0.04 0.05 0.05 0.04 0.05 0.05 0.07 0.08 0.08 0.08 0.07 0.06 0.06 0.05 0.05 0.04 0.04 0.04 0.03 0.03 0.02 0.03 0.04 0.04 0.04 0.04 0.03 0.02 0.01 0.01 0.01 0.02 0.02 0.04 0.05 0.05 0.05
0.05 0.05 0.05 0.05 0.06 0.06 0.06 0.07 0.09 0.09 0.07 0.06 0.05 0.05 0.05 0.05 0.05 0.06 0.05 0.06 0.06 0.06 0.05 0.04 0.05 0.05 0.05 0.04 0.03 0.02 0.01 0.01 0.02 0.02 0.02 0.04 0.04 0.04
0.04 0.05 0.06 0.06 0.07 0.08 0.08 0.09 0.08 0.07 0.06 0.05 0.05 0.05 0.04 0.04 0.05 0.05 0.05 0.05 0.05 0.06 0.07 0.06 0.05 0.05 0.04 0.04 0.04 0.03 0.03 0.03 0.03 0.02 0.02 0.03 0.03 0.03
0.04 0.05 0.06 0.06 0.08 0.08 0.08 0.08 0.06 0.05 0.04 0.04 0.04 0.04 0.04 0.05 0.06 0.06 0.06 0.05 0.04 0.05 0.06 0.05 0.05 0.03 0.04 0.03 0.04 0.05 0.04 0.03 0.02 0.02 0.02 0.03 0.03 0.04
0.02 0.03 0.03 0.05 0.06 0.05 0.05 0.04 0.03 0.03 0.04 0.04 0.04 0.04 0.05 0.06 0.06 0.07 0.07 0.06 0.05 0.04 0.04 0.04 0.03 0.03 0.03 0.04 0.04 0.04 0.03 0.03 0.02 0.02 0.02 0.02 0.03 0.05
0.03 0.03 0.03 0.03 0.04 0.04 0.03 0.02 0.02 0.02 0.03 0.04 0.05 0.06 0.06 0.06 0.06 0.06 0.06 0.05 0.05 0.06 0.05 0.04 0.02 0.03 0.03 0.04 0.04 0.04 0.04 0.04 0.03 0.03 0.03 0.03 0.03 0.03
0.02 0.02 0.02 0.02 0.03 0.04 0.03 0.03 0.03 0.02 0.03 0.03 0.04 0.04 0.04 0.05 0.05 0.05 0.04 0.04 0.05 0.06 0.08 0.06 0.04 0.04 0.04 0.03 0.02 0.03 0.04 0.05 0.05 0.04 0.03 0.03 0.03 0.02
0.02 0.01 0.02 0.03 0.04 0.05 0.04 0.03 0.03 0.04 0.04 0.04 0.04 0.03 0.03 0.03 0.02 0.02 0.02 0.03 0.03 0.05 0.06 0.07 0.06 0.06 0.04 0.03 0.03 0.03 0.03 0.04 0.05 0.05 0.05 0.05 0.04 0.04
0.02 0.01 0.02 0.03 0.04 0.05 0.06 0.05 0.06 0.06 0.06 0.06 0.05 0.03 0.02 0.02 0.02 0.02 0.02 0.02 0.01 0.02 0.04 0.05 0.06 0.06 0.04 0.04 0.04 0.04 0.03 0.04 0.04 0.04 0.04 0.05 0.06 0.07
0.04 0.03 0.03 0.03 0.04 0.04 0.05 0.05 0.05 0.06 0.05 0.04 0.03 0.03 0.03 0.03 0.03 0.03 0.03 0.02 0.02 0.03 0.04 0.04 0.06 0.06 0.04 0.03 0.04 0.03 0.04 0.04 0.04 0.04 0.05 0.05 0.04 0.05
0.05 0.05 0.04 0.05 0.05 0.05 0.05 0.05 0.04 0.04 0.04 0.04 0.03 0.03 0.03 0.03 0.03 0.03 0.03 0.02 0.04 0.05 0.05 0.06 0.06 0.05 0.03 0.03 0.03 0.03 0.02 0.02 0.03 0.04 0.05 0.05 0.04 0.04
0.07 0.06 0.05 0.05 0.06 0.05 0.04 0.03 0.03 0.03 0.03 0.03 0.03 0.03 0.03 0.04 0.04 0.03 0.03 0.02 0.03 0.04 0.04 0.06 0.08 0.07 0.03 0.03 0.03 0.03 0.03 0.02 0.03 0.04 0.05 0.05 0.05 0.04
0.06 0.06 0.06 0.07 0.07 0.05 0.04 0.03 0.03 0.03 0.03 0.03 0.03 0.03 0.03 0.03 0.05 0.05 0.04 0.03 0.03 0.03 0.03 0.04 0.08 0.10 0.06 0.04 0.05 0.05 0.04 0.03 0.03 0.05 0.04 0.04 0.04 0.05
0.03 0.04 0.05 0.05 0.05 0.06 0.06 0.05 0.05 0.05 0.04 0.04 0.04 0.04 0.04 0.04 0.04 0.05 0.04 0.04 0.04 0.03 0.03 0.04 0.05 0.08 0.09 0.07 0.05 0.04 0.05 0.04 0.03 0.04 0.04 0.04 0.03 0.04
0.02 0.03 0.04 0.05 0.05 0.06 0.07 0.07 0.07 0.07 0.07 0.06 0.06 0.06 0.05 0.05 0.05 0.05 0.04 0.05 0.06 0.06 0.04 0.03 0.04 0.04 0.05 0.05 0.04 0.03 0.03 0.04 0.04 0.03 0.04 0.04 0.04 0.05
0.02 0.02 0.03 0.03 0.04 0.05 0.07 0.07 0.07 0.08 0.09 0.09 0.09 0.09 0.08 0.08 0.07 0.06 0.05 0.05 0.05 0.05 0.05 0.05 0.04 0.04 0.04 0.04 0.04 0.03 0.03 0.05 0.06 0.05 0.04 0.04 0.04 0.04
0.02 0.02 0.03 0.03 0.03 0.04 0.05 0.07 0.08 0.09 0.10 0.13 0.13 0.11 0.08 0.06 0.06 0.05 0.04 0.04 0.03 0.03 0.03 0.03 0.02 0.03 0.03 0.03 0.03 0.02 0.03 0.04 0.05 0.08 0.08 0.05 0.03 0.04
0.03 0.03 0.03 0.03 0.03 0.03 0.04 0.05 0.06 0.07 0.07 0.07 0.08 0.07 0.06 0.05 0.05 0.04 0.03 0.03 0.03 0.03 0.04 0.04 0.03 0.03 0.02 0.02 0.03 0.03 0.02 0.03 0.04 0.05 0.06 0.06 0.04 0.04

GEFSNE_prec_meanprec_378.txt.gz
QPF
0.04 0.03 0.03 0.02 0.02 0.03 0.04 0.04 0.04 0.02 0.01 0.01 0.01 0.01 0.01 0.01 0.03 0.03 0.02 0.03 0.04 0.03 0.02 0.02 0.03 0.03 0.03 0.04 0.06 0.09 0.07 0.05 0.06 0.08 0.10 0.09 0.07 0.05
0.05 0.03 0.03 0.03 0.03 0.03 0.03 0.03 0.04 0.03 0.01 0.01 0.01 0.01 0.01 0.02 0.03 0.03 0.03 0.04 0.04 0.04 0.03 0.03 0.03 0.04 0.04 0.04 0.04 0.06 0.08 0.05 0.04 0.08 0.12 0.11 0.09 0.06
0.08 0.06 0.05 0.04 0.04 0.03 0.02 0.02 0.03 0.04 0.02 0.01 0.01 0.01 0.02 0.03 0.03 0.04 0.05 0.05 0.04 0.05 0.04 0.03 0.04 0.04 0.04 0.05 0.05 0.05 0.07 0.06 0.05 0.04 0.08 0.13 0.13 0.09
0.04 0.05 0.05 0.04 0.04 0.03 0.02 0.03 0.02 0.03 0.03 0.01 0.01 0.02 0.03 0.03 0.04 0.04 0.04 0.04 0.03 0.03 0.03 0.02 0.03 0.04 0.04 0.04 0.05 0.05 0.05 0.06 0.06 0.05 0.04 0.07 0.16 0.17
0.04 0.03 0.03 0.03 0.03 0.02 0.02 0.02 0.02 0.03 0.03 0.03 0.03 0.03 0.03 0.03 0.04 0.04 0.04 0.03 0.03 0.03 0.02 0.02 0.02 0.03 0.05 0.05 0.05 0.05 0.05 0.05 0.05 0.05 0.04 0.05 0.09 0.15
0.02 0.02 0.02 0.02 0.01 0.02 0.02 0.02 0.03 0.04 0.04 0.05 0.05 0.05 0.05 0.04 0.04 0.04 0.05 0.05 0.04 0.03 0.03 0.03 0.02 0.03 0.04 0.06 0.06 0.05 0.05 0.04 0.04 0.04 0.04 0.05 0.06 0.08
0.02 0.02 0.02 0.02 0.02 0.02 0.03 0.02 0.03 0.04 0.04 0.05 0.05 0.05 0.04 0.04 0.04 0.04 0.05 0.06 0.07 0.06 0.05 0.04 0.03 0.03 0.04 0.05 0.07 0.07 0.06 0.05 0.03 0.03 0.03 0.03 0.05 0.06
0.01 0.02 0.02 0.02 0.02 0.03 0.03 0.03 0.03 0.03 0.03 0.03 0.03 0.03 0.04 0.04 0.05 0.05 0.06 0.07 0.08 0.07 0.08 0.07 0.05 0.05 0.04 0.05 0.07 0.09 0.06 0.04 0.02 0.02 0.02 0.03 0.04 0.05
0.01 0.02 0.02 0.02 0.02 0.02 0.02 0.03 0.03 0.03 0.03 0.03 0.03 0.02 0.03 0.04 0.05 0.06 0.06 0.06 0.07 0.08 0.09 0.10 0.08 0.06 0.04 0.04 0.06 0.06 0.06 0.04 0.04 0.03 0.02 0.03 0.04 0.04
0.02 0.03 0.04 0.05 0.04 0.03 0.03 0.02 0.01 0.01 0.02 0.02 0.02 0.02 0.02 0.03 0.04 0.05 0.06 0.08 0.10 0.10 0.09 0.09 0.08 0.06 0.05 0.04 0.05 0.05 0.06 0.05 0.04 0.03 0.03 0.04 0.05 0.05
0.03 0.04 0.03 0.03 0.02 0.02 0.03 0.02 0.01 0.01 0.01 0.02 0.01 0.02 0.03 0.04 0.05 0.06 0.06 0.07 0.07 0.08 0.08 0.07 0.07 0.04 0.04 0.04 0.04 0.04 0.04 0.06 0.05 0.04 0.04 0.04 0.04 0.05
0.02 0.02 0.02 0.02 0.02 0.02 0.03 0.03 0.02 0.01 0.01 0.01 0.02 0.02 0.04 0.05 0.05 0.06 0.06 0.06 0.05 0.05 0.06 0.08 0.06 0.04 0.03 0.03 0.03 0.04 0.04 0.04 0.05 0.04 0.04 0.03 0.03 0.03
0.02 0.01 0.01 0.02 0.02 0.03 0.04 0.03 0.02 0.03 0.03 0.03 0.03 0.04 0.04 0.04 0.04 0.05 0.07 0.06 0.06 0.05 0.04 0.05 0.05 0.04 0.03 0.02 0.02 0.02 0.03 0.04 0.05 0.05 0.04 0.04 0.04 0.03
0.01 0.01 0.01 0.02 0.02 0.03 0.04 0.03 0.03 0.04 0.04 0.03 0.03 0.03 0.03 0.03 0.03 0.04 0.06 0.06 0.05 0.05 0.05 0.04 0.04 0.05 0.04 0.02 0.02 0.02 0.02 0.02 0.04 0.05 0.05 0.05 0.05 0.05
0.02 0.02 0.02 0.02 0.02 0.03 0.04 0.05 0.06 0.06 0.06 0.05 0.03 0.03 0.03 0.04 0.04 0.05 0.05 0.05 0.05 0.04 0.04 0.05 0.05 0.05 0.04 0.03 0.02 0.02 0.02 0.02 0.04 0.05 0.04 0.04 0.04 0.05
0.03 0.03 0.03 0.03 0.03 0.04 0.05 0.06 0.06 0.06 0.06 0.05 0.05 0.05 0.05 0.05 0.05 0.06 0.06 0.06 0.05 0.04 0.04 0.05 0.05 0.04 0.03 0.03 0.03 0.03 0.03 0.04 0.04 0.04 0.04 0.04 0.04 0.05
0.03 0.03 0.04 0.05 0.05 0.05 0.04 0.06 0.06 0.05 0.05 0.04 0.05 0.05 0.05 0.05 0.06 0.07 0.08 0.07 0.06 0.04 0.03 0.04 0.06 0.05 0.04 0.03 0.03 0.02 0.02 0.02 0.03 0.03 0.04 0.05 0.05 0.05
0.02 0.03 0.04 0.06 0.08 0.07 0.06 0.07 0.07 0.07 0.06 0.06 0.06 0.06 0.05 0.05 0.06 0.07 0.08 0.09 0.07 0.06 0.05 0.06 0.07 0.07 0.05 0.04 0.03 0.03 0.02 0.02 0.02 0.03 0.03 0.04 0.05 0.05
0.02 0.02 0.02 0.03 0.05 0.07 0.08 0.06 0.05 0.06 0.07 0.08 0.09 0.08 0.07 0.06 0.06 0.05 0.06 0.07 0.08 0.06 0.05 0.06 0.07 0.07 0.07 0.05 0.05 0.05 0.04 0.03 0.03 0.03 0.03 0.03 0.04 0.05
0.01 0.02 0.03 0.03 0.03 0.04 0.05 0.06 0.05 0.06 0.07 0.08 0.08 0.08 0.07 0.06 0.05 0.05 0.05 0.05 0.06 0.06 0.05 0.04 0.04 0.05 0.06 0.05 0.04 0.05 0.06 0.05 0.04 0.03 0.04 0.04 0.04 0.06
0.02 0.03 0.03 0.03 0.03 0.02 0.03 0.04 0.05 0.06 0.08 0.08 0.08 0.07 0.06 0.05 0.06 0.06 0.07 0.06 0.06 0.05 0.05 0.05 0.04 0.04 0.04 0.04 0.03 0.03 0.04 0.06 0.07 0.05 0.04 0.04 0.03 0.04
0.02 0.02 0.03 0.03 0.03 0.03 0.03 0.03 0.03 0.04 0.05 0.05 0.06 0.06 0.06 0.05 0.04 0.04 0.04 0.04 0.05 0.05 0.05 0.04 0.04 0.04 0.03 0.03 0.03 0.03 0.03 0.05 0.07 0.08 0.06 0.04 0.03 0.03
0.02 0.02 0.03 0.03 0.02 0.03 0.03 0.04 0.04 0.04 0.03 0.04 0.04 0.04 0.05 0.06 0.06 0.05 0.05 0.04 0.04 0.04 0.04 0.03 0.03 0.03 0.02 0.02 0.03 0.03 0.03 0.04 0.05 0.06 0.06 0.05 0.04 0.04

GEFSNE_prec_meanprec_384.txt.gz
QPF
0.07 0.08 0.07 0.08 0.09 0.07 0.06 0.06 0.06 0.04 0.04 0.04 0.04 0.03 0.02 0.02 0.01 0.02 0.01 0.01 0.01 0.02 0.02 0.01 0.01 0.01 0.02 0.02 0.04 0.05 0.06 0.06 0.04 0.03 0.03 0.03 0.04 0.03
0.07 0.06 0.06 0.06 0.08 0.09 0.07 0.06 0.05 0.05 0.04 0.03 0.03 0.02 0.02 0.01 0.01 0.02 0.01 0.01 0.01 0.02 0.02 0.02 0.01 0.01 0.01 0.01 0.03 0.05 0.06 0.06 0.05 0.04 0.04 0.03 0.04 0.03
0.05 0.04 0.05 0.05 0.07 0.08 0.07 0.05 0.04 0.04 0.05 0.04 0.03 0.03 0.04 0.03 0.03 0.03 0.02 0.02 0.02 0.01 0.02 0.02 0.01 0.01 0.01 0.02 0.03 0.05 0.06 0.07 0.06 0.05 0.05 0.05 0.05 0.05
0.04 0.04 0.04 0.04 0.04 0.05 0.06 0.06 0.04 0.04 0.04 0.04 0.03 0.03 0.04 0.04 0.04 0.04 0.02 0.01 0.02 0.02 0.02 0.02 0.03 0.02 0.02 0.02 0.02 0.04 0.05 0.07 0.07 0.07 0.06 0.06 0.06 0.06
0.04 0.04 0.04 0.05 0.05 0.04 0.04 0.05 0.05 0.04 0.04 0.03 0.03 0.03 0.03 0.03 0.03 0.02 0.02 0.03 0.03 0.02 0.03 0.03 0.03 0.03 0.03 0.03 0.02 0.03 0.05 0.08 0.08 0.09 0.08 0.05 0.05 0.09
0.06 0.05 0.04 0.04 0.04 0.04 0.04 0.05 0.06 0.05 0.04 0.03 0.03 0.03 0.02 0.02 0.03 0.02 0.03 0.03 0.03 0.03 0.03 0.03 0.04 0.04 0.04 0.04 0.03 0.03 0.04 0.08 0.09 0.10 0.10 0.08 0.05 0.08
0.05 0.05 0.05 0.04 0.04 0.04 0.04 0.05 0.05 0.04 0.04 0.03 0.04 0.03 0.03 0.03 0.03 0.03 0.03 0.03 0.03 0.03 0.04 0.04 0.04 0.04 0.04 0.04 0.05 0.04 0.04 0.06 0.09 0.09 0.09 0.08 0.06 0.07
0.04 0.04 0.03 0.03 0.03 0.03 0.03 0.03 0.04 0.05 0.04 0.04 0.04 0.04 0.03 0.03 0.03 0.04 0.04 0.04 0.03 0.03 0.04 0.04 0.04 0.04 0.03 0.04 0.05 0.05 0.05 0.06 0.07 0.08 0.08 0.08 0.07 0.06
0.02 0.01 0.01 0.02 0.03 0.04 0.04 0.03 0.04 0.03 0.03 0.04 0.03 0.03 0.03 0.03 0.05 0.05 0.05 0.04 0.04 0.04 0.04 0.05 0.05 0.04 0.04 0.04 0.05 0.06 0.06 0.06 0.06 0.07 0.07 0.07 0.06 0.05
0.01 0.01 0.02 0.03 0.04 0.05 0.04 0.03 0.02 0.02 0.02 0.03 0.03 0.03 0.02 0.03 0.04 0.05 0.05 0.05 0.04 0.04 0.05 0.05 0.06 0.05 0.05 0.05 0.06 0.06 0.06 0.06 0.06 0.06 0.07 0.07 0.06 0.05
0.02 0.03 0.04 0.04 0.04 0.03 0.02 0.02 0.02 0.02 0.02 0.02 0.02 0.02 0.02 0.01 0.02 0.03 0.04 0.04 0.04 0.03 0.05 0.08 0.07 0.07 0.07 0.06 0.06 0.07 0.08 0.07 0.06 0.05 0.05 0.06 0.06 0.04
0.03 0.02 0.02 0.02 0.02 0.02 0.02 0.02 0.02 0.02 0.02 0.02 0.02 0.01 0.02 0.02 0.02 0.03 0.04 0.05 0.05 0.04 0.04 0.08 0.09 0.09 0.10 0.09 0.09 0.09 0.09 0.08 0.06 0.05 0.04 0.04 0.04 0.03
0.01 0.01 0.01 0.01 0.01 0.01 0.01 0.02 0.02 0.02 0.03 0.02 0.03 0.03 0.03 0.03 0.03 0.03 0.04 0.04 0.05 0.05 0.05 0.08 0.10 0.10 0.10 0.10 0.10 0.10 0.10 0.08 0.06 0.05 0.04 0.03 0.03 0.03
0.01 0.01 0.01 0.01 0.01 0.01 0.01 0.02 0.02 0.03 0.03 0.03 0.03 0.03 0.03 0.03 0.03 0.03 0.04 0.04 0.05 0.06 0.07 0.08 0.08 0.08 0.09 0.09 0.11 0.10 0.08 0.07 0.06 0.04 0.03 0.04 0.04 0.04
0.02 0.02 0.01 0.01 0.01 0.01 0.01 0.02 0.02 0.03 0.04 0.04 0.04 0.03 0.04 0.04 0.04 0.05 0.05 0.04 0.05 0.07 0.08 0.08 0.08 0.07 0.09 0.10 0.11 0.12 0.10 0.07 0.05 0.04 0.03 0.04 0.05 0.04
0.02 0.01 0.01 0.01 0.01 0.01 0.01 0.02 0.03 0.04 0.05 0.05 0.06 0.05 0.05 0.05 0.05 0.04 0.04 0.04 0.06 0.07 0.07 0.08 0.08 0.08 0.09 0.09 0.11 0.12 0.11 0.09 0.06 0.04 0.03 0.03 0.04 0.05
0.01 0.01 0.01 0.02 0.02 0.02 0.02 0.03 0.03 0.04 0.05 0.05 0.05 0.06 0.06 0.06 0.06 0.05 0.06 0.07 0.08 0.08 0.08 0.08 0.09 0.10 0.10 0.09 0.09 0.11 0.11 0.10 0.07 0.05 0.04 0.04 0.04 0.05
0.02 0.02 0.02 0.02 0.02 0.03 0.04 0.04 0.05 0.05 0.05 0.04 0.05 0.06 0.07 0.07 0.06 0.06 0.07 0.08 0.09 0.10 0.09 0.08 0.09 0.11 0.11 0.10 0.07 0.08 0.09 0.09 0.08 0.06 0.04 0.04 0.03 0.04
0.02 0.02 0.02 0.03 0.03 0.04 0.04 0.04 0.05 0.06 0.06 0.06 0.07 0.06 0.07 0.08 0.08 0.08 0.08 0.09 0.09 0.10 0.09 0.07 0.07 0.07 0.08 0.08 0.07 0.06 0.06 0.07 0.06 0.04 0.04 0.03 0.03 0.04
0.02 0.02 0.02 0.02 0.03 0.03 0.03 0.03 0.04 0.05 0.06 0.07 0.07 0.07 0.07 0.09 0.10 0.11 0.11 0.10 0.09 0.10 0.10 0.08 0.07 0.07 0.07 0.07 0.05 0.04 0.04 0.05 0.05 0.04 0.03 0.03 0.03 0.03
0.01 0.02 0.02 0.02 0.02 0.02 0.02 0.03 0.03 0.03 0.04 0.04 0.06 0.06 0.07 0.08 0.10 0.11 0.13 0.15 0.12 0.11 0.09 0.08 0.08 0.07 0.07 0.06 0.05 0.04 0.04 0.04 0.04 0.04 0.03 0.03 0.04 0.03
0.01 0.01 0.01 0.01 0.01 0.01 0.02 0.03 0.04 0.05 0.05 0.04 0.04 0.05 0.05 0.07 0.09 0.10 0.11 0.14 0.14 0.12 0.09 0.08 0.08 0.08 0.06 0.05 0.05 0.05 0.05 0.03 0.03 0.03 0.04 0.04 0.04 0.04
0.01 0.01 0.01 0.01 0.01 0.02 0.03 0.04 0.04 0.04 0.04 0.04 0.04 0.04 0.04 0.04 0.06 0.07 0.08 0.10 0.11 0.10 0.07 0.07 0.08 0.08 0.07 0.05 0.04 0.04 0.04 0.03 0.03 0.03 0.05 0.06 0.05 0.04